Regional Weather Roundup
Issued by NWS Upton, NY

Current Version | Previous Version | Text Only | Print | Product List | Glossary On
Versions: 1 2 3 4 5 6 7 8 9 10 11 12 13 14 15 16 17 18 19 20 21 22 23 24 25 26 27 28 29 30 31 32 33 34 35 36 37 38 39 40 41 42 43 44 45 46 47 48 49 50
000
ASUS41 KOKX 230507
RWROKX

REGIONAL WEATHER ROUNDUP
NATIONAL WEATHER SERVICE NEW YORK NY
100 AM EDT THU MAR 23 2017

NOTE: "FAIR" INDICATES FEW OR NO CLOUDS BELOW 12,000 FEET WITH NO
SIGNIFICANT WEATHER AND/OR OBSTRUCTIONS TO VISIBILITY.

NYZ071-072-176-178-NJZ106-104-230600-
NEW YORK CITY METRO AREA

CITY           SKY/WX    TMP DP  RH WIND       PRES   REMARKS
Central Park   CLEAR     24   0  35 VRB7G23   30.48R WCI  16
Wall St Helipt CLEAR     26   6  42 W5        30.49R WCI  20
LaGuardia APRT CLEAR     26   3  37 NW16G26   30.47R WCI  14
Kennedy INTL   CLEAR     24  -2  32 NW17G28   30.47R WCI  11
Breezy Point     N/A    N/A N/A N/A NW14G22     N/A
Newark/Liberty CLEAR     24   0  35 NW9G18    30.48R WCI  14
Teterboro      PTCLDY    24   3  40 NW17G26   30.47R WCI  11
$$

NYZ177-179-078>081-230600-
LONG ISLAND NEW YORK

CITY           SKY/WX    TMP DP  RH WIND       PRES   REMARKS
Jones Beach      N/A    N/A N/A N/A NW20G28     N/A
Matinecock PT  NOT AVBL
Farmingdale    CLEAR     23  -1  35 N9        30.45R WCI  13
MacArthur/ISP  CLEAR     23  -2  33 NW16      30.43R WCI  10
Shirley        CLEAR     23  -3  32 N15G32    30.44R WCI  10
Westhampton    CLEAR     22  -4  32 NW18G28   30.42R WCI   7
East Hampton     N/A     22  -6  29 NW13G24   30.39R WCI  10
Montauk          N/A     24  -2  32 NW17G26   30.40R WCI  11
$$

NYZ052-065-067-230600-
HUDSON VALLEY

CITY           SKY/WX    TMP DP  RH WIND       PRES   REMARKS
White Plains   CLEAR     21   0  39 NW14      30.41R WCI   8
Newburgh       CLEAR     18   5  57 W9        30.45R WCI   6
Montgomery     CLEAR     21   3  45 NW10      30.44R WCI  10
Poughkeepsie   PTCLDY    20   0  41 CALM      30.44R
Albany         CLEAR     18  -3  39 N6        30.45R WCI  10
$$

NJZ001-105-106-008-010-013-015-019>022-104-230600-
NEW JERSEY

CITY           SKY/WX    TMP DP  RH WIND       PRES   REMARKS
Newark/Liberty CLEAR     24   0  35 NW9G18    30.48R WCI  14
Teterboro      PTCLDY    24   3  40 NW17G26   30.47R WCI  11
Caldwell       CLEAR     22   2  42 NW8       30.48R WCI  12
Somerville     CLEAR     23   1  38 VRB5      30.48R WCI  17
Linden           N/A     24   0  35 N8        30.49R WCI  15
Sussex         CLEAR     20   4  50 VRB6      30.45S WCI  12
Andover          N/A     19   3  49 NW6       30.46S WCI  11
Trenton        CLEAR     23   1  38 N7        30.48R WCI  15
Millville      PTCLDY    27  -1  30 N7        30.49R WCI  19
Atlantic City  CLEAR     25  -3  29 N10       30.48R WCI  15
Wrightstown    CLEAR     23   0  36 NW13      30.46R WCI  12
Toms River     PTCLDY    24   1  36 N9        30.49R WCI  14
Belmar         CLEAR     23   2  40 NW13G26   30.48R WCI  11
$$

PAZ047>061-062-071-230600-
EASTERN PENNSYLVANIA

CITY           SKY/WX    TMP DP  RH WIND       PRES   REMARKS
Philadelphia   CLEAR     27  -1  30 N10       30.51R WCI  17
Allentown      PTCLDY    22   4  46 NW9       30.49S WCI  12
Scranton       CLEAR     18   5  57 CALM      30.46S
$$

CTZ002-004>006-009-010-012-RIZ004-006-007-MAZ004-011-015-230600-
SOUTHERN NEW ENGLAND
 IN CT

CITY           SKY/WX    TMP DP  RH WIND       PRES   REMARKS
Bradley INTL   CLEAR     19  -5  34 NW8       30.40R WCI   9
Hartford       CLEAR     21  -4  33 NW9       30.42R WCI  11
Danbury        CLEAR     19  -2  39 NW7       30.42R WCI  10
Wtrbury/Oxford CLEAR     18  -4  38 NW9G17    30.38R WCI   6
Bridgeport     CLEAR     24  -3  30 NW12G23   30.44R WCI  13
Meriden        CLEAR     22  -4  32 N15G22    30.41R WCI   9
New Haven      CLEAR     22  -2  35 NW14      30.42R WCI   9
Chester          N/A     19  -8  30 NW14G22   30.37R WCI   6
Groton         CLEAR     22  -4  32 NW14      30.39R WCI   9
Wilimantic     CLEAR     22  -6  29 N18G26    30.39R WCI   7

 IN RI

CITY           SKY/WX    TMP DP  RH WIND       PRES   REMARKS
Providence     CLEAR     20  -8  28 MISG      30.37R
Block Island   CLEAR     22  -1  36 NW13G24   30.37R WCI  10
Westerly       CLEAR     22  -8  26 N14G21    30.38R WCI   9
 IN MA

CITY           SKY/WX    TMP DP  RH WIND       PRES   REMARKS
Boston         CLEAR     18  -5  36 NW21G28   30.35R WCI   1
Worcester      CLEAR     14  -9  35 NW22G33   30.27S WCI  -4
Westfield      CLEAR     18  -4  37 N12       30.38R WCI   5
Provincetown   CLEAR     20   6  55 NW25G37   30.30R WCI   2
Nantucket      CLEAR     21   2  43 NW29G40   30.29R WCI   3
$$

ANZ330-335-338-340-345-350-353-355-230600-
COASTAL MARINE OBSERVATIONS


STATION/POSITION TIME  SKY/WX   TEMP    WIND        PRES    VSBY  WAVE
                                AIR SEA DIR/SP/G                  HT/PER
                 (UTC)          (F)     (DEG/KT/KT) (MB)    (MI)  (FT/S)
NY HARB ENTRANCE 0350            29 41  310/ 21/ 25 1030.6          4/ 5
20 S FIRE ISLAND 0450            28 41  330/ 21/ 27 1030.3          5/ 6
GREAT SOUTH BAY  NOT AVBL
23 SSW MONTAUK P 0350            27 42              1028.4          5/ 5
15 E BARNEGAT LI 0430               42                N/A           5/ 6
HUDSON CANYON    0450            31 45  340/ 23/ 27 1029.3         10/ 8
KINGS POINT      0442            25 38              1031.3
EXECUTION ROCKS  NOT AVBL
CENTRAL LI SOUND 0430            25     320/ 21/ 25   N/A           3/ 3
EASTERN LI SOUND NOT AVBL
ROBBINS REEF     0442            24     330/ 13/ 19 1032.2
$$


>>>>>>>>>>>>>>>>>>>>>>>>>>>> KEY <<<<<<<<<<<<<<<<<<<<<<<<<<<
>                                                          <
>     SKY/WX - Sky Condition/Present Weather               <
>     TMP    - Temperature in Fahrenheit                   <
>     DP     - Dew Point in Fahrenheit                     <
>     RH     - Relative Humidity in Percent                <
>     WIND   - Direction (from) and Speed in MPH           <
>     PRES   - Mean Sea Level Pressure (inches of Hg)      <
>     WCI    - Wind Chill Index                            <
>     VSB    - VISIBILITY IN MILES                         <
>     HX     - HEAT INDEX                                  <
>     TC     - TEMPERATURE IN CELSIUS                      <
>     VRB    - VARIABLE WIND DIRECTION                     <
>                                                          <
>>>>>>>>>>>>>>>>>>>>>>>>>>>> KEY <<<<<<<<<<<<<<<<<<<<<<<<<<<



USA.gov is the U.S. government's official web portal to all federal, state and local government web resources and services.